• In Hungary
  • List of Countries
  • For 7 days
  • Water Temperature
  • Satellite Maps
  • Weather Map
  • News
  • Weather Widgets
  • user-avatar
    Login

    Hourly Weather Simbirskiy

    Today, 23 May, Wednesday

    Time Temperature Precipitation Wind Pressure Humidity
    00:00 +14°C° 0 mm 2 mps 752 mmHg 84%
    01:00 +14°C° 0 mm 2 mps 752 mmHg 87%
    02:00 +14°C° 0 mm 2 mps 752 mmHg 88%
    03:00 +13°C° 0 mm 1 mps 752 mmHg 88%
    04:00 +13°C° 0 mm 2 mps 752 mmHg 88%
    05:00 +15°C° 0 mm 2 mps 753 mmHg 84%
    06:00 +16°C° 0 mm 2 mps 753 mmHg 79%
    07:00 +18°C° 0 mm 2 mps 753 mmHg 74%
    08:00 +21°C° 0 mm 1 mps 753 mmHg 68%
    09:00 +23°C° 0 mm 1 mps 753 mmHg 62%
    10:00 +23°C° 0 mm 0 mps 754 mmHg 56%
    11:00 +26°C° 0 mm 1 mps 753 mmHg 53%
    12:00 +27°C° 0 mm 1 mps 753 mmHg 50%
    13:00 +28°C° 0 mm 2 mps 753 mmHg 48%
    14:00 +28°C° 0 mm 2 mps 753 mmHg 48%
    15:00 +28°C° 0 mm 2 mps 753 mmHg 48%
    16:00 +28°C° 0 mm 3 mps 753 mmHg 48%
    17:00 +27°C° 0 mm 2 mps 752 mmHg 53%
    18:00 +26°C° 0 mm 2 mps 752 mmHg 58%
    19:00 +25°C° 0 mm 2 mps 752 mmHg 63%
    20:00 +23°C° 0 mm 2 mps 752 mmHg 65%
    21:00 +21°C° 0 mm 2 mps 751 mmHg 66%
    22:00 +19°C° 0 mm 2 mps 751 mmHg 68%
    23:00 +20°C° 0 mm 1 mps 751 mmHg 70%

    Tomorrow, 24 May, Thursday

    Time Temperature Precipitation Wind Pressure Humidity
    00:00 +19°C° 0 mm 1 mps 751 mmHg 71%
    01:00 +19°C° 0 mm 1 mps 751 mmHg 73%
    02:00 +18°C° 0 mm 1 mps 751 mmHg 74%
    03:00 +18°C° 0 mm 1 mps 750 mmHg 76%
    04:00 +16°C° 0 mm 1 mps 750 mmHg 77%
    05:00 +19°C° 0 mm 1 mps 750 mmHg 74%
    06:00 +20°C° 0 mm 1 mps 750 mmHg 70%
    07:00 +22°C° 0 mm 1 mps 750 mmHg 67%
    08:00 +23°C° 0 mm 2 mps 750 mmHg 63%
    09:00 +25°C° 0 mm 2 mps 749 mmHg 58%
    10:00 +27°C° 0 mm 3 mps 749 mmHg 54%
    11:00 +27°C° 0 mm 4 mps 749 mmHg 51%
    12:00 +28°C° 0 mm 4 mps 748 mmHg 47%
    13:00 +29°C° 0 mm 5 mps 748 mmHg 44%
    14:00 +29°C° 0 mm 5 mps 747 mmHg 44%
    15:00 +29°C° 0 mm 5 mps 747 mmHg 44%
    16:00 +30°C° 0 mm 5 mps 747 mmHg 44%
    17:00 +28°C° 0 mm 4 mps 747 mmHg 49%
    18:00 +27°C° 0 mm 3 mps 746 mmHg 54%
    19:00 +25°C° 0 mm 2 mps 746 mmHg 59%
    20:00 +24°C° 0 mm 2 mps 746 mmHg 62%
    21:00 +21°C° 0 mm 2 mps 746 mmHg 64%
    22:00 +21°C° 0 mm 1 mps 745 mmHg 67%
    23:00 +20°C° 0 mm 1 mps 745 mmHg 67%

    Day after tomorrow, 25 May, Friday

    Time Temperature Precipitation Wind Pressure Humidity
    00:00 +20°C° 0 mm 1 mps 745 mmHg 68%
    01:00 +18°C° 0 mm 2 mps 744 mmHg 68%
    02:00 +18°C° 0 mm 2 mps 744 mmHg 68%
    03:00 +17°C° 0 mm 2 mps 743 mmHg 68%
    04:00 +17°C° 0 mm 2 mps 743 mmHg 67%
    05:00 +18°C° 0 mm 2 mps 743 mmHg 66%
    06:00 +18°C° 0 mm 3 mps 742 mmHg 65%
    07:00 +19°C° 0 mm 3 mps 742 mmHg 63%
    08:00 +21°C° 0 mm 4 mps 742 mmHg 59%
    09:00 +22°C° 0 mm 4 mps 741 mmHg 55%
    10:00 +25°C° 0 mm 4 mps 741 mmHg 51%
    11:00 +25°C° 0 mm 5 mps 741 mmHg 52%
    12:00 +25°C° 0 mm 5 mps 740 mmHg 52%
    13:00 +26°C° 0 mm 5 mps 740 mmHg 52%
    14:00 +25°C° 0 mm 4 mps 740 mmHg 57%
    15:00 +23°C° 0 mm 4 mps 739 mmHg 62%
    16:00 +24°C° 0 mm 3 mps 739 mmHg 67%
    17:00 +21°C° 0.1 mm 3 mps 738 mmHg 73%
    18:00 +20°C° 0.1 mm 4 mps 738 mmHg 79%
    19:00 +18°C° 0.1 mm 4 mps 738 mmHg 85%
    20:00 +15°C° 1.2 mm 5 mps 738 mmHg 86%
    21:00 +13°C° 1.2 mm 6 mps 738 mmHg 87%
    22:00 +10°C° 1.2 mm 7 mps 738 mmHg 88%
    23:00 +10°C° 0.4 mm 7 mps 738 mmHg 87%

    26 May, Saturday

    Time Temperature Precipitation Wind Pressure Humidity
    00:00 +9°C° 0.4 mm 6 mps 739 mmHg 87%
    01:00 +8°C° 0.4 mm 5 mps 739 mmHg 86%
    02:00 +8°C° 0 mm 5 mps 739 mmHg 87%
    03:00 +7°C° 0 mm 5 mps 740 mmHg 88%
    04:00 +7°C° 0 mm 5 mps 740 mmHg 88%
    05:00 +7°C° 0.1 mm 6 mps 741 mmHg 87%
    06:00 +8°C° 0.1 mm 6 mps 741 mmHg 85%
    07:00 +8°C° 0.1 mm 7 mps 742 mmHg 83%
    08:00 +9°C° 0.1 mm 7 mps 743 mmHg 75%
    09:00 +10°C° 0.1 mm 8 mps 743 mmHg 66%
    10:00 +11°C° 0.1 mm 8 mps 744 mmHg 58%
    11:00 +12°C° 0 mm 8 mps 744 mmHg 53%
    12:00 +13°C° 0 mm 8 mps 745 mmHg 48%
    13:00 +15°C° 0 mm 8 mps 745 mmHg 43%
    14:00 +14°C° 0 mm 7 mps 746 mmHg 45%
    15:00 +14°C° 0 mm 7 mps 746 mmHg 46%
    16:00 +14°C° 0 mm 7 mps 746 mmHg 48%
    17:00 +13°C° 0 mm 6 mps 747 mmHg 51%
    18:00 +12°C° 0 mm 5 mps 747 mmHg 54%
    19:00 +12°C° 0 mm 5 mps 747 mmHg 56%
    20:00 +10°C° 0 mm 5 mps 748 mmHg 56%
    21:00 +10°C° 0 mm 4 mps 748 mmHg 55%
    22:00 +8°C° 0 mm 4 mps 749 mmHg 55%
    23:00 +7°C° 0 mm 4 mps 749 mmHg 57%

    27 May, Sunday

    Time Temperature Precipitation Wind Pressure Humidity
    00:00 +6°C° 0 mm 4 mps 749 mmHg 59%
    01:00 +5°C° 0 mm 3 mps 749 mmHg 61%
    02:00 +4°C° 0 mm 3 mps 750 mmHg 62%
    03:00 +4°C° 0 mm 3 mps 750 mmHg 64%
    04:00 +3°C° 0 mm 3 mps 750 mmHg 65%
    05:00 +5°C° 0 mm 4 mps 749 mmHg 63%
    06:00 +6°C° 0 mm 4 mps 749 mmHg 61%
    07:00 +8°C° 0 mm 5 mps 749 mmHg 59%
    08:00 +10°C° 0 mm 6 mps 749 mmHg 56%
    09:00 +11°C° 0 mm 6 mps 748 mmHg 54%
    10:00 +14°C° 0 mm 7 mps 748 mmHg 51%
    11:00 +15°C° 0 mm 7 mps 747 mmHg 51%
    12:00 +16°C° 0 mm 8 mps 746 mmHg 51%
    13:00 +17°C° 0 mm 8 mps 745 mmHg 50%
    14:00 +17°C° 0 mm 8 mps 745 mmHg 55%
    15:00 +16°C° 0 mm 7 mps 744 mmHg 59%
    16:00 +16°C° 0 mm 7 mps 743 mmHg 64%
    17:00 +16°C° 0 mm 6 mps 743 mmHg 67%
    18:00 +16°C° 0 mm 5 mps 743 mmHg 70%
    19:00 +17°C° 0 mm 4 mps 742 mmHg 73%
    20:00 +15°C° 0 mm 5 mps 742 mmHg 76%
    21:00 +14°C° 0 mm 5 mps 741 mmHg 79%
    22:00 +13°C° 0 mm 5 mps 741 mmHg 81%
    23:00 +13°C° 0 mm 5 mps 740 mmHg 83%

    28 May, Monday

    Time Temperature Precipitation Wind Pressure Humidity
    00:00 +12°C° 0 mm 5 mps 740 mmHg 85%
    01:00 +12°C° 0 mm 5 mps 739 mmHg 87%
    02:00 +11°C° 0.4 mm 6 mps 739 mmHg 89%
    03:00 +11°C° 0.4 mm 6 mps 738 mmHg 91%
    04:00 +11°C° 0.4 mm 6 mps 738 mmHg 93%
    05:00 +10°C° 1.1 mm 6 mps 738 mmHg 91%
    06:00 +9°C° 1.1 mm 6 mps 739 mmHg 90%
    07:00 +8°C° 1.1 mm 6 mps 739 mmHg 88%
    08:00 +9°C° 0 mm 7 mps 739 mmHg 81%
    09:00 +9°C° 0 mm 7 mps 740 mmHg 73%
    10:00 +10°C° 0 mm 7 mps 740 mmHg 66%
    11:00 +11°C° 0.1 mm 7 mps 740 mmHg 63%
    12:00 +11°C° 0.1 mm 7 mps 740 mmHg 61%
    13:00 +12°C° 0.1 mm 7 mps 740 mmHg 58%
    14:00 +12°C° 0.3 mm 8 mps 740 mmHg 57%
    15:00 +11°C° 0.3 mm 8 mps 740 mmHg 55%
    16:00 +11°C° 0.3 mm 8 mps 740 mmHg 54%
    17:00 +10°C° 0 mm 7 mps 740 mmHg 56%
    18:00 +10°C° 0 mm 6 mps 740 mmHg 58%
    19:00 +10°C° 0 mm 4 mps 740 mmHg 60%
    20:00 +7°C° 0 mm 4 mps 741 mmHg 65%
    21:00 +6°C° 0 mm 4 mps 741 mmHg 71%
    22:00 +5°C° 0 mm 3 mps 741 mmHg 77%
    23:00 +4°C° 0 mm 3 mps 741 mmHg 80%
    Show more